Weather History for Marshfield, MA

Change the Weather History Date:

Sunday, February 3, 2013

  Actual Average (KPYM) Record (KPYM)
Temperature  
Mean Temperature 29 °F -  
Max Temperature 32 °F 41 °F 63 °F (1991)
Min Temperature 26 °F 21 °F -6 °F (1971)
Degree Days  
Heating Degree Days 36    
Moisture  
Dew Point 24 °F    
Average Humidity 81    
Maximum Humidity 86    
Minimum Humidity 64    
Precipitation  
Precipitation 0.00 in - - ()
Sea Level Pressure  
Sea Level Pressure 29.87 in    
Wind  
Wind Speed 6 mph (WNW)    
Max Wind Speed 10 mph    
Max Gust Speed 20 mph    
Visibility 7 miles    
Events Rain , Snow    
Averages and records for this station are not official NWS values.
T = Trace of Precipitation, MM = Missing Value Source: NWS Daily Summary

Daily Weather History Graph

Daily Weather History Graph

Search for Another Location

Airport:

Trip Planner

Search our weather history database for the weather conditions in past years. The results will help you decide how hot, cold, wet, or windy it might be!

Date:

Astronomy

Feb. 03, 2013 Rise Set
Actual Time 6:53 AM EST 5:00 PM EST
Civil Twilight 6:23 AM EST 5:29 PM EST
Nautical Twilight 5:50 AM EST 6:03 PM EST
Astronomical Twilight 5:17 AM EST 6:35 PM EST
Moon 12:17 AM EST (2/3) 10:34 AM EST (2/3)
Length of Visible Light 11h 05m
Length of Day
10h 06m
Waning Gibbous, 49% of the Moon is Illuminated
Feb 3
Waning Gibbous
Feb 10
New
Feb 17
First Quarter
Feb 25
Full
Mar 4
Last Quarter

Hourly Weather History & Observations

Time (EST) Temp. Windchill Dew Point Humidity Pressure Visibility Wind Dir Wind Speed Gust Speed Precip Events Conditions
12:15 AM 30.2 °F 23.4 °F 19.4 °F 64% 30.07 in 8.0 mi WSW 6.9 mph 16.1 mph N/A Rain Light Freezing Rain
12:35 AM 28.4 °F 22.2 °F 21.2 °F 74% 30.07 in 2.0 mi WSW 5.8 mph - N/A Snow Light Snow
12:55 AM 28.4 °F 22.2 °F 23.0 °F 80% 30.06 in 2.5 mi West 5.8 mph - N/A Snow Light Snow
1:15 AM 28.4 °F 22.2 °F 23.0 °F 80% 30.06 in 5.0 mi WSW 5.8 mph - N/A Snow Light Snow
1:35 AM 26.6 °F 20.0 °F 23.0 °F 86% 30.05 in 4.0 mi West 5.8 mph - N/A   Overcast
1:55 AM 26.6 °F 21.2 °F 23.0 °F 86% 30.04 in 4.0 mi West 4.6 mph - N/A   Overcast
2:15 AM 26.6 °F 21.2 °F 23.0 °F 86% 30.03 in 4.0 mi WNW 4.6 mph - N/A Rain Light Freezing Rain
2:35 AM 26.6 °F - 21.2 °F 80% 30.01 in 10.0 mi Calm Calm - N/A   Scattered Clouds
2:55 AM 26.6 °F 22.6 °F 21.2 °F 80% 30.02 in 10.0 mi West 3.5 mph - N/A   Partly Cloudy
3:15 AM 26.6 °F - 21.2 °F 80% 30.02 in 3.0 mi Calm Calm - N/A Snow Light Snow
3:35 AM 26.6 °F - 23.0 °F 86% 30.02 in 2.0 mi Calm Calm - N/A Snow Light Snow
3:55 AM 26.6 °F 22.6 °F 23.0 °F 86% 30.02 in 2.5 mi SSW 3.5 mph - N/A Snow Light Snow
4:15 AM 26.6 °F - 23.0 °F 86% 30.01 in 3.0 mi Calm Calm - N/A Snow Light Snow
4:35 AM 26.6 °F 22.6 °F 23.0 °F 86% 30.00 in 3.0 mi West 3.5 mph - N/A Snow Light Snow
5:15 AM 26.6 °F - 23.0 °F 86% 29.99 in 3.0 mi Calm Calm - N/A Snow Light Snow
5:35 AM 26.6 °F 22.6 °F 23.0 °F 86% 29.98 in 4.0 mi WNW 3.5 mph - N/A Snow Light Snow
5:55 AM 26.6 °F 21.2 °F 23.0 °F 86% 29.98 in 3.0 mi WNW 4.6 mph - N/A   Overcast
6:15 AM 26.6 °F 22.6 °F 23.0 °F 86% 29.97 in 3.0 mi WNW 3.5 mph - N/A   Overcast
6:35 AM 26.6 °F 22.6 °F 23.0 °F 86% 29.96 in 4.0 mi West 3.5 mph - N/A Rain Light Freezing Rain
6:55 AM 26.6 °F 22.6 °F 23.0 °F 86% 29.96 in 7.0 mi West 3.5 mph - N/A   Overcast
7:15 AM 26.6 °F 21.2 °F 23.0 °F 86% 29.96 in 10.0 mi WSW 4.6 mph - N/A   Overcast
7:35 AM 26.6 °F 21.2 °F 23.0 °F 86% 29.97 in 10.0 mi WSW 4.6 mph - N/A   Overcast
7:55 AM 26.6 °F 21.2 °F 23.0 °F 86% 29.98 in 10.0 mi WSW 4.6 mph - N/A   Overcast
8:15 AM 26.6 °F 22.6 °F 23.0 °F 86% 29.97 in 10.0 mi WSW 3.5 mph - N/A   Overcast
8:55 AM 28.4 °F 22.2 °F 23.0 °F 80% 29.97 in 10.0 mi WSW 5.8 mph - N/A   Overcast
9:15 AM 28.4 °F 24.6 °F 23.0 °F 80% 29.96 in 5.0 mi West 3.5 mph - N/A Rain Light Freezing Rain
9:35 AM 28.4 °F 22.2 °F 24.8 °F 86% 29.95 in 7.0 mi West 5.8 mph - N/A Rain Light Freezing Rain
9:55 AM 30.2 °F 24.3 °F 26.6 °F 86% 29.94 in 8.0 mi West 5.8 mph - N/A   Overcast
10:15 AM 30.2 °F 24.3 °F 24.8 °F 80% 29.93 in 4.0 mi WNW 5.8 mph - N/A Snow Light Snow
10:35 AM 30.2 °F 23.4 °F 26.6 °F 86% 29.92 in 10.0 mi West 6.9 mph - N/A   Mostly Cloudy
10:55 AM 32.0 °F 25.6 °F 26.6 °F 80% 29.91 in 10.0 mi NW 6.9 mph - N/A   Mostly Cloudy
11:15 AM 30.2 °F 22.6 °F 24.8 °F 80% 29.89 in 10.0 mi WNW 8.1 mph - N/A   Overcast
11:35 AM 30.2 °F 22.6 °F 24.8 °F 80% 29.87 in 10.0 mi NW 8.1 mph - N/A   Overcast
11:55 AM 30.2 °F 21.9 °F 24.8 °F 80% 29.86 in 10.0 mi WNW 9.2 mph - N/A   Overcast
12:15 PM 30.2 °F 22.6 °F 24.8 °F 80% 29.85 in 10.0 mi NW 8.1 mph - N/A   Overcast
12:35 PM 30.2 °F 21.9 °F 24.8 °F 80% 29.84 in 10.0 mi NW 9.2 mph - N/A   Overcast
12:55 PM 30.2 °F 21.3 °F 24.8 °F 80% 29.84 in 10.0 mi WNW 10.4 mph - N/A   Overcast
1:15 PM 30.2 °F 21.9 °F 24.8 °F 80% 29.83 in 10.0 mi NW 9.2 mph - N/A   Overcast
1:35 PM 30.2 °F 22.6 °F 23.0 °F 75% 29.82 in 10.0 mi WNW 8.1 mph - N/A   Overcast
1:55 PM 30.2 °F 24.3 °F 24.8 °F 80% 29.80 in 10.0 mi WNW 5.8 mph - N/A Rain Light Freezing Rain
2:15 PM 30.2 °F 23.4 °F 24.8 °F 80% 29.79 in 10.0 mi WNW 6.9 mph - N/A Rain Light Freezing Rain
2:35 PM 30.2 °F 24.3 °F 24.8 °F 80% 29.80 in 10.0 mi WNW 5.8 mph - N/A Rain Light Freezing Rain
2:55 PM 30.2 °F 21.9 °F 24.8 °F 80% 29.80 in 10.0 mi NW 9.2 mph - N/A Rain Light Freezing Rain
3:15 PM 30.2 °F 21.9 °F 24.8 °F 80% 29.79 in 10.0 mi WNW 9.2 mph - N/A   Light Freezing Rain
3:35 PM 30.2 °F 21.9 °F 24.8 °F 80% 29.78 in 10.0 mi WNW 9.2 mph - N/A Rain Light Freezing Rain
3:55 PM 30.2 °F 23.4 °F 24.8 °F 80% 29.78 in 10.0 mi WNW 6.9 mph - N/A Rain Light Freezing Rain
4:15 PM 30.2 °F 23.4 °F 24.8 °F 80% 29.77 in 9.0 mi NW 6.9 mph - N/A Rain Light Freezing Rain
4:35 PM 30.2 °F 21.3 °F 24.8 °F 80% 29.75 in 10.0 mi NW 10.4 mph 17.3 mph N/A Rain Light Freezing Rain
4:55 PM 30.2 °F 21.3 °F 24.8 °F 80% 29.75 in 9.0 mi NW 10.4 mph 19.6 mph N/A Rain Light Freezing Rain
5:15 PM 30.2 °F 21.9 °F 24.8 °F 80% 29.75 in 10.0 mi NW 9.2 mph 17.3 mph N/A   Overcast
5:35 PM 30.2 °F 21.3 °F 24.8 °F 80% 29.75 in 10.0 mi NW 10.4 mph 17.3 mph N/A Rain Light Freezing Rain
5:55 PM 30.2 °F 21.9 °F 24.8 °F 80% 29.76 in 10.0 mi NW 9.2 mph - N/A Rain Light Freezing Rain
6:15 PM 30.2 °F 22.6 °F 23.0 °F 75% 29.76 in 10.0 mi WNW 8.1 mph 16.1 mph N/A Rain Light Freezing Rain
6:35 PM 30.2 °F 24.3 °F 23.0 °F 75% 29.77 in 10.0 mi NW 5.8 mph - N/A   Overcast
6:55 PM 30.2 °F 23.4 °F 23.0 °F 75% 29.77 in 10.0 mi WNW 6.9 mph 17.3 mph N/A Rain Light Freezing Rain
7:15 PM 30.2 °F 21.3 °F 24.8 °F 80% 29.76 in 5.0 mi NW 10.4 mph 16.1 mph N/A Snow Light Snow
7:35 PM 28.4 °F 20.4 °F 24.8 °F 86% 29.76 in 3.0 mi NW 8.1 mph - N/A Snow Light Snow
7:55 PM 28.4 °F 19.7 °F 24.8 °F 86% 29.75 in 4.0 mi WNW 9.2 mph - N/A Snow Light Snow
8:15 PM 28.4 °F 19.7 °F 24.8 °F 86% 29.75 in 4.0 mi NW 9.2 mph - N/A Snow Light Snow
8:35 PM 28.4 °F 20.4 °F 24.8 °F 86% 29.75 in 5.0 mi NW 8.1 mph - N/A Snow Light Snow
8:55 PM 28.4 °F 21.2 °F 23.0 °F 80% 29.74 in 5.0 mi WNW 6.9 mph - N/A Snow Light Snow
9:15 PM 28.4 °F 19.7 °F 23.0 °F 80% 29.73 in 4.0 mi WNW 9.2 mph - N/A Snow Light Snow
9:35 PM 28.4 °F 21.2 °F 23.0 °F 80% 29.73 in 10.0 mi WNW 6.9 mph - N/A   Overcast
9:55 PM 28.4 °F 22.2 °F 23.0 °F 80% 29.73 in 10.0 mi WNW 5.8 mph - N/A   Overcast
10:15 PM 28.4 °F 22.2 °F 23.0 °F 80% 29.72 in 10.0 mi WNW 5.8 mph - N/A Rain Light Freezing Rain
10:55 PM 28.4 °F 20.4 °F 23.0 °F 80% 29.73 in 4.0 mi West 8.1 mph - N/A Snow Light Snow
11:15 PM 28.4 °F 23.3 °F 23.0 °F 80% 29.72 in 3.0 mi West 4.6 mph - N/A Snow Light Snow
11:35 PM 28.4 °F 22.2 °F 23.0 °F 80% 29.73 in 8.0 mi West 5.8 mph - N/A Snow Light Snow
11:55 PM 28.4 °F 20.4 °F 23.0 °F 80% 29.73 in 10.0 mi WNW 8.1 mph - N/A   Mostly Cloudy